This demonstration page uses our WeatherBlox Daily Observations layout. Learn more.

Left ArrowRight Arrow

44.8408, -93.29828

Hourly Observations for August 26, 2017

Temp ( °F °C ) Dew Point ( °F °C ) Humidity (%) Winds ( mph kmh ) Pressure ( in mb ) Visibility ( mi km ) Precip ( " mm )
12:53 am 00:53 Cloudy with Rain 62 16.7 61 16.1 96 96 SSE 14 22 30.12 1020 5 8 0.22 5.59
1:12 am 01:12 Cloudy with Nearby Thunderstorms 62 16.7 61 16.1 96 96 SE 13 20 30.09 1019 7 11 0.03 0.76
1:53 am 01:53 Cloudy with Light Rain 62 16.7 61 16.1 96 96 SE 10 17 30.12 1020 10 16 0.06 1.52
2:30 am 02:30 Cloudy with Nearby Thunderstorms 61 16.1 61 16.1 100 100 SE 9 15 30.09 1019 2 3 0.45 11.43
2:42 am 02:42 Cloudy with Heavy Rain 61 16.1 60 15.6 97 97 SE 14 22 30.09 1019 2 3 0.75 19.05
2:45 am 02:45 Cloudy with Heavy Rain 61 16.1 60 15.6 97 97 ESE 16 26 30.09 1019 2 3 0.81 20.57
2:53 am 02:53 Cloudy with Light Rain 61 16.1 61 16.1 100 100 SE 13 20 30.11 1020 7 11 0.85 21.59
3:53 am 03:53 Cloudy with Light Rain 61 16.1 60 15.6 97 97 SE 7 11 30.11 1020 4 6 0.13 3.30
4:53 am 04:53 Cloudy with Light Rain 61 16.1 60 15.6 97 97 SE 10 17 30.09 1019 8 13 0.07 1.78
5:53 am 05:53 Cloudy 61 16.1 59 15 93 93 SSE 10 17 30.09 1019 10 16 0.01 0.25
6:53 am 06:53 Cloudy with Light Rain 61 16.1 59 15 93 93 SSE 12 19 30.09 1019 10 16 0.01 0.25
7:53 am 07:53 Cloudy 61 16.1 60 15.6 97 97 SSE 9 15 30.09 1019 10 16 0.00 0.03
8:53 am 08:53 Cloudy with Light Rain 61 16.1 59 15 93 93 SSE 12 19 30.09 1019 7 11 0.00 0.03
9:53 am 09:53 Cloudy with Light Rain 62 16.7 60 15.6 93 93 SSE 12 19 30.09 1019 9 14 0.01 0.25
10:32 am 10:32 Mostly Cloudy 63 17.2 61 16.1 93 93 SSE 8 13 30.06 1018 10 16 0.01 0.25
10:53 am 10:53 Cloudy 64 17.8 62 16.7 93 93 S 9 15 30.09 1019 10 16 0.01 0.25
11:09 am 11:09 Mostly Cloudy 65 18.3 62 16.7 90 90 SSE 10 17 30.06 1018 10 16 0.00 0.00
11:20 am 11:20 Mostly Cloudy 65 18.3 61 16.1 87 87 SSE 13 20 30.06 1018 10 16 0.00 0.00
11:53 am 11:53 Cloudy 66 18.9 62 16.7 87 87 S 13 20 30.06 1018 10 16 0.00 0.03
12:53 pm 12:53 Cloudy 67 19.4 64 17.8 91 91 S 13 20 30.05 1018 10 16 0.00 0.03
1:22 pm 13:22 Cloudy with Light Rain 66 18.9 63 17.2 90 90 S 15 24 30.03 1017 10 16 0.00 0.03
1:50 pm 13:50 Cloudy with Light Rain 66 19 64 18 94 94 S 14 22 30.00 1016 7 11 0.00 0.03
1:53 pm 13:53 Cloudy with Light Rain 66 18.9 64 17.8 93 93 S 14 22 30.04 1017 7 11 0.00 0.03
2:30 pm 14:30 Cloudy with Mist and Fog 65 18.3 64 17.8 97 97 S 8 13 30.00 1016 4 6 0.01 0.25
2:49 pm 14:49 Cloudy with Light Rain 64 18 64 18 100 100 SSE 14 22 30.00 1016 2 3 0.01 0.25
2:53 pm 14:53 Cloudy with Light Rain 65 18.3 64 17.8 97 97 SSE 10 17 30.04 1017 2 3 0.01 0.25
3:12 pm 15:12 Cloudy with Light Rain 65 18.3 64 17.8 97 97 SSE 12 19 30.00 1016 1 2 0.02 0.51
3:40 pm 15:40 Cloudy with Light Rain 65 18.3 64 17.8 97 97 SSE 9 15 30.00 1016 2 2 0.05 1.27
3:53 pm 15:53 Cloudy with Light Rain 65 18.3 65 18.3 100 100 SSE 8 13 30.03 1017 2 2 0.07 1.78
4:04 pm 16:04 Cloudy with Mist and Fog 65 18.3 65 18.3 100 100 SSE 10 17 30.00 1016 3 4 0.00 0.03
4:15 pm 16:15 Cloudy with Mist and Fog 65 18.3 65 18.3 100 100 SSE 8 13 30.00 1016 4 6 0.00 0.03
4:27 pm 16:27 Cloudy with Mist and Fog 65 18.3 65 18.3 100 100 SSE 6 9 30.00 1016 6 10 0.00 0.03
4:33 pm 16:33 Cloudy with Mist and Fog 65 18.3 65 18.3 100 100 S 6 9 30.00 1016 6 10 0.00 0.03
4:53 pm 16:53 Cloudy with Mist and Fog 66 18.9 65 18.3 96 96 S 7 11 30.01 1016 5 8 0.00 0.03
5:16 pm 17:16 Cloudy with Mist and Fog 66 18.9 66 18.9 100 100 S 8 13 29.97 1015 3 5 0.00 0.00
5:53 pm 17:53 Cloudy 66 18.9 65 18.3 96 96 SSE 9 15 30.00 1016 7 11 0.00 0.00
6:53 pm 18:53 Cloudy 66 18.9 65 18.3 96 96 S 9 15 30.01 1016 7 11 0.00 0.00
7:53 pm 19:53 Cloudy 67 19.4 65 18.3 93 93 S 10 17 30.00 1016 7 11 0.00 0.00
8:53 pm 20:53 Cloudy 67 19.4 66 18.9 97 97 S 8 13 30.01 1016 7 11 0.00 0.00
9:53 pm 21:53 Cloudy 66 18.9 66 18.9 100 100 SSE 5 7 30.02 1017 7 11 0.00 0.00
10:53 pm 22:53 Cloudy with Mist and Fog 67 19.4 66 18.9 97 97 SSE 6 9 30.01 1016 6 10 0.00 0.00
11:53 pm 23:53 Cloudy with Mist and Fog 67 19.4 67 19.4 100 100 SSW 5 7 30.01 1016 5 8 0.00 0.00

Powered by AerisWeather